Regional Weather Roundup
Issued by NWS

Home | Current Version | Previous Version | Graphics & Text | Print | Product List | Glossary Off
Versions: 1 2 3 4 5 6 7 8 9 10 11 12 13 14 15 16 17 18 19 20 21 22 23 24 25 26 27 28 29 30 31 32 33 34 35 36 37 38 39 40 41 42 43 44 45 46 47 48 49 50

000
ASUS43 KMKX 291628
RWRWI

WISCONSIN REGIONAL WEATHER ROUNDUP
NATIONAL WEATHER SERVICE MILWAUKEE/SULLIVAN WI
1100 AM CDT FRI MAY 29 2015

NOTE: "FAIR" INDICATES FEW OR NO CLOUDS BELOW 12,000 FEET WITH NO
SIGNIFICANT WEATHER AND/OR OBSTRUCTIONS TO VISIBILITY.

WIZ001-002-006>008-014>016-023>028-291700-
NORTHWEST WISCONSIN

CITY           SKY/WX    TMP DP  RH WIND       PRES   REMARKS
SUPERIOR ARPT  PTSUNNY   60  53  75 SW5       29.88S
ASHLAND        CLOUDY    66  62  87 SW8G16    29.88R
HAYWARD        CLOUDY    66  62  87 SW6       29.90R
SIREN          CLOUDY    68  63  83 W6        29.90S
CUMBERLAND     CLOUDY    64  63  94 W5        29.91S
RICE LAKE      CLOUDY    66  62  88 SW5       29.92S
CHETEK         CLOUDY    66  64  91 S3        29.91S
LADYSMITH      CLOUDY    67  63  87 S9        29.93S
EAU CLAIRE     CLOUDY    69  64  84 S8        29.90S
MENOMONIE      LGT RAIN  69  65  87 S6        29.90S
NEW RICHMOND   CLOUDY    68  66  92 SW3       29.90S
OSCEOLA        CLOUDY    69  68  98 S3        29.92S
$$

WIZ003>005-009-010-017-018-291700-
NORTH CENTRAL WISCONSIN

CITY           SKY/WX    TMP DP  RH WIND       PRES   REMARKS
MANITOWISH WTR CLOUDY    66  61  83 SW10G16   29.91S
ARBOR VITAE    CLOUDY    69  62  77 SW8       29.92S
WOODRUFF       CLOUDY    69  62  77 SW8       29.92S
RHINELANDER    CLOUDY    70  60  70 SW12      29.93S
EAGLE RIVER    PTSUNNY   70  58  64 SW12G17   29.91F
LAND O LAKES   CLOUDY    71  59  66 SW9       29.92S
PHILLIPS       CLOUDY    66  61  84 SW9       29.91F
TOMAHAWK       CLOUDY    68  61  76 S7        29.93S
MEDFORD        CLOUDY    65  62  89 SW12      29.94S
MERRILL        CLOUDY    70  63  78 SW9       29.95S
$$

WIZ029-030-035-036-043>047-291700-
CENTRAL WISCONSIN

CITY           SKY/WX    TMP DP  RH WIND       PRES   REMARKS
WAUSAU         CLOUDY    70  62  76 S12       29.93F
MOSINEE        CLOUDY    68  63  83 S14       29.96F
MARSHFIELD     PTSUNNY   70  62  76 SW13      29.95S
STEVENS POINT  CLOUDY    69  62  78 SW10G16   29.96F
WAUPACA        LGT RAIN  70  66  87 S6        29.97S
WAUTOMA        CLOUDY    69  68  97 S6        29.97F
WISC RAPIDS    CLOUDY    71  62  73 SW15G21   29.96F
CAMP DOUGLAS   CLOUDY    72  72 100 S8        29.95F
$$

WIZ011>013-019>022-031-037>040-048>050-291700-
NORTHEAST WISCONSIN

CITY           SKY/WX    TMP DP  RH WIND       PRES   REMARKS
ANTIGO         CLOUDY    68  63  83 SW12G18   29.96F
SHAWANO        CLOUDY    69  63  80 S7        29.96F
OCONTO         CLOUDY    66  66  98 S3        29.97S
STURGEON BAY   CLOUDY    63  57  82 S7        30.00F
GREEN BAY      LGT RAIN  70  63  78 SW8       29.98S
MANITOWOC      CLOUDY    63  60  90 S9        30.00F
APPLETON       CLOUDY    66  63  88 S10       29.99S
CLINTONVILLE   CLOUDY    68  61  77 S7        29.96F
OSHKOSH        CLOUDY    70  63  78 S10       29.97F
$$

WIZ032>034-041-042-053>061-291700-
SOUTHWEST WISCONSIN

CITY           SKY/WX    TMP DP  RH WIND       PRES   REMARKS
LA CROSSE      CLOUDY    74  63  68 S10       29.92F
SPARTA         PTSUNNY   72  61  69 S7        29.95S
VIROQUA        CLOUDY    72  63  73 SW8       29.96S
BOSCOBEL       PTSUNNY   74  64  71 S5        29.95F
PRAIRIE DU CHI PTSUNNY   73  62  67 SW3       29.94F
PLATTEVILLE    PTSUNNY   73  68  85 S10       29.96F
$$

WIZ056-057-062-063-064-067-068-291700-
SOUTH CENTRAL WISCONSIN

CITY           SKY/WX    TMP DP  RH WIND       PRES   REMARKS
REEDSBURG      CLOUDY    70  65  84 SW8       29.97S
BARABOO/DELLS  CLOUDY    71  64  79 S8        29.97S
LONE ROCK      CLOUDY    73  65  75 S8        29.96F
MINERAL POINT  CLOUDY    72  68  88 S7        29.97F
MADISON        CLOUDY    73  64  73 S10       29.97F
MIDDLETON      CLOUDY    74  64  72 S8        29.98F
WATERTOWN      PTSUNNY  N/A N/A N/A S12       29.98F
MONROE         PTSUNNY   73  64  73 S12       29.98F
JANESVILLE     CLOUDY    73  68  83 S6        29.99S
$$

WIZ051-052-058>065-066-070>072-291700-
SOUTHEAST WISCONSIN

CITY           SKY/WX    TMP DP  RH WIND       PRES   REMARKS
MILWAUKEE      PTSUNNY   78  64  61 SW13      30.00F HX  80
WAUKESHA       CLOUDY    77  64  65 SW9       30.01F
MILWAUKEE/TIMM MOSUNNY   79  61  53 S12G20    30.00F HX  80
RACINE         MOSUNNY   73  63  70 S13       30.03S
BURLINGTON     PTSUNNY   77  63  61 S13G22    30.00F
KENOSHA        PTSUNNY   78  65  63 SW14G24   30.01F HX  80
FOND DU LAC    CLOUDY    74  65  73 S14       29.97F
SHEBOYGAN      CLOUDY    70  65  84 S7        30.00F
WEST BEND      PTSUNNY   77  63  61 S8G16     30.00F
JUNEAU         CLOUDY    74  64  71 S13G18    30.00S
$$

LSZ147-162-291700-
LAKE SUPERIOR

STATION/POSITION TIME  TEMP    WIND        PRES    WAVE
                       AIR SEA DIR/SP/G            HT/PER
                 (UTC) (F)     (DEG/KT/KT) (MB)    (FT/S)
W MID LAKE BUOY  1550   44 37  150/  2/  2   N/A     1
DEVILS ISLAND    1600   42     280/  6/  6   N/A
PORT WING        1400   45      CALM  /  2   N/A
SAXON HARBOR     1500   66     210/  6/ 10   N/A
$$

LMZ867-665-643>646-291700-
LAKE MICHIGAN

STATION/POSITION TIME  TEMP    WIND        PRES    WAVE
                       AIR SEA DIR/SP/G            HT/PER
                 (UTC) (F)     (DEG/KT/KT) (MB)    (FT/S)
CHAMBERS ISLAND  1500   63     170/  4/  7   N/A
N MID LAKE BUOY  1550   43 37  200/ 14/ 17   N/A     1
NORTHPORT PIER   1500   55     170/  6/ 10   N/A
SISTER BAY       1503   59     160/ 10/ 12   N/A
ALGOMA LAKESHORE 1538          170/  1/  3   N/A
KEWAUNEE LAKESHO 1600   50     180/ 11/ 13   N/A
SHEBOYGAN LAKESH 1600   54     160/ 18/ 19   N/A
PORT WASHINGTON  1500   58      80/  1/  3   N/A
ATWATER BUOY     1600   54     180/  6/  8   N/A
MILWAUKEE LAKESH 1600   57      60/  2/  5   N/A
S MID LAKE BUOY  1550   47 38  170/ 10/ 10   N/A     1
KENOSHA   LAKESH 1600   59     180/ 11/ 14   N/A
$$

TC  - TEMPERATURE IN CELSIUS
VSB - VISIBILITY IN STATUTE MILES
WCI - WIND CHILL INDEX
HX  - HEAT INDEX




USA.gov is the U.S. government's official web portal to all federal, state and local government web resources and services.